Dewpoint
15 14 12 12 10 8 5 5 2 4 6 7 9 12 12 15 16 17 18 18 18 18 20 20 19 20 22 24 26 28 31 34 35 37 38 39 39 41 44 47 55 61 60 60
11 15 17 11 10 9 9 8 6 6 6 9 11 14 11 11 13 15 17 19 18 17 19 19 19 19 21 23 24 28 28 32 34 36 37 37 38 38 40 43 47 56 61 60
-3 15 15 3 7 12 10 10 7 2 4 7 7 8 10 11 11 13 16 18 17 17 17 20 19 20 20 23 24 26 28 29 32 34 36 37 37 37 38 39 43 47 58 60
-1 7 1 -0 12 14 9 7 9 9 6 7 8 11 15 11 11 14 15 15 16 17 17 18 19 20 21 22 22 23 25 28 30 32 35 37 36 37 36 37 39 44 50 60
-1 -1 3 2 13 12 9 1 8 7 7 8 11 14 7 9 14 16 14 14 15 17 17 18 19 19 20 21 20 21 24 26 28 30 32 35 36 36 36 36 38 42 48 57
1 -1 -3 4 -0 2 12 3 8 7 7 8 11 6 7 12 16 14 11 12 14 15 17 17 19 20 19 19 20 20 23 25 26 29 30 32 36 35 35 35 36 40 45 52
2 -0 1 8 3 7 4 -1 4 7 9 9 8 8 12 16 13 10 9 12 13 14 16 17 19 19 19 20 21 20 23 24 25 27 28 32 35 36 35 34 35 37 40 42
4 -1 -2 8 10 8 6 8 10 8 7 9 11 13 13 12 8 8 9 12 13 14 16 18 18 19 20 20 22 22 21 22 24 25 27 31 32 35 34 33 33 34 35 36
10 6 11 17 12 13 12 9 7 6 7 9 9 9 10 9 7 8 10 12 14 16 17 18 18 19 20 21 22 22 23 22 22 24 26 28 32 33 33 33 32 32 33 33
10 11 12 16 20 17 15 7 8 7 8 8 8 9 9 7 8 10 11 15 16 17 18 18 18 19 20 20 21 23 22 23 23 23 25 27 30 33 32 31 31 31 31 32
11 12 11 12 18 18 8 7 8 9 9 9 9 9 7 7 9 12 16 17 17 17 18 18 18 18 20 20 22 24 23 22 23 23 24 25 28 30 35 33 32 31 31 32
7 9 10 8 7 7 7 8 9 11 10 10 9 8 8 10 12 17 18 17 17 18 17 16 17 19 21 23 24 24 22 22 23 23 24 24 26 27 33 35 36 36 35 34
9 11 9 8 8 10 10 10 10 11 11 8 9 10 11 14 17 17 18 18 18 17 17 18 20 22 27 29 28 25 23 23 23 23 24 24 25 26 29 33 36 36 36 35
10 9 7 7 7 10 11 11 12 10 10 11 12 14 16 18 18 18 18 18 17 18 20 23 24 21 23 28 25 27 26 25 24 24 24 25 24 26 26 29 32 33 35 35
9 8 6 8 10 11 11 11 9 9 11 13 15 17 18 19 18 18 18 19 20 21 23 18 17 16 18 24 23 23 24 26 26 26 25 25 26 26 26 26 27 29 31 32
8 8 9 9 10 10 9 10 10 11 14 16 18 19 20 19 19 19 20 22 22 19 15 15 16 18 20 22 19 20 20 21 26 27 26 26 26 26 26 26 26 26 26 28
5 6 7 8 9 8 10 11 13 15 17 18 19 21 20 19 18 19 21 19 18 15 16 19 18 19 20 18 19 20 21 20 21 26 26 26 26 25 25 25 24 25 25 26
7 8 9 9 9 10 10 13 15 17 17 20 19 18 18 17 18 16 16 16 15 15 17 16 16 18 18 19 21 21 21 21 21 23 26 26 25 25 25 25 26 26 26 27
10 9 10 10 11 11 13 15 17 18 19 20 17 16 17 17 17 16 15 14 13 12 14 15 17 17 18 19 21 21 23 22 22 24 26 26 26 26 26 26 26 27 27 27
10 11 11 11 13 14 15 17 18 18 18 17 16 15 15 15 16 14 13 14 13 14 14 14 15 16 17 18 18 19 20 20 21 21 21 21 21 21 22 22 22 22 24 24
10 11 11 12 15 16 17 17 17 17 16 16 16 15 15 15 15 14 12 12 14 14 12 13 14 15 16 16 15 16 17 17 17 17 16 16 16 16 16 16 17 18 17 18
11 11 12 14 15 17 17 17 16 16 16 16 15 14 15 14 14 14 14 14 15 16 13 13 13 14 14 14 13 13 12 13 13 14 13 12 13 12 13 13 14 14 14 14
11 11 13 15 16 16 16 16 15 15 16 16 15 14 14 14 15 13 13 15 15 15 14 13 13 14 13 13 13 12 11 11 11 11 11 11 9 10 9 9 10 11 9 10
11 12 14 16 17 15 14 15 14 15 16 15 15 16 15 12 13 14 14 15 14 15 14 14 13 12 12 12 12 12 10 10 9 9 8 8 9 8 8 8 8 8 8 8
12 15 16 17 16 15 15 15 14 15 15 15 15 14 15 14 12 13 14 14 14 14 15 14 13 12 12 12 11 11 11 9 8 8 8 8 8 8 7 8 6 6 6 6
15 16 16 17 17 16 16 16 13 14 15 13 14 14 14 15 14 15 15 14 14 13 14 15 14 13 13 11 11 10 9 9 8 8 8 7 7 7 6 7 6 5 5 5
16 16 17 17 16 15 16 15 13 13 13 12 13 14 15 15 15 14 14 13 11 12 11 10 14 14 13 13 11 10 10 9 9 9 8 8 7 6 6 6 6 5 5 5
Wind_Speed
6 3 3 2 6 10 15 3 4 7 7 14 18 18 18 19 18 19 20 21 24 24 23 22 24 22 21 23 25 27 28 26 27 27 27 27 25 22 22 22 18 23 25 29
9 9 4 2 3 4 4 3 2 5 8 7 15 12 15 21 21 21 21 19 21 24 23 23 24 24 23 24 25 23 26 28 28 28 28 28 27 26 24 22 21 19 26 28
6 5 5 5 3 3 2 3 3 3 8 11 17 19 17 20 22 23 21 19 19 20 22 21 25 24 24 24 21 20 22 26 27 29 29 28 27 28 26 26 24 24 19 22
7 3 5 5 2 7 7 6 9 9 11 12 15 15 17 18 17 21 20 19 18 17 20 20 20 21 19 20 20 20 22 24 26 26 28 25 28 26 27 25 25 21 23 24
3 6 3 3 4 7 9 13 7 9 13 14 14 9 14 15 13 15 17 18 17 18 20 19 20 20 19 20 20 19 19 20 25 28 30 31 31 29 26 25 26 25 22 23
3 4 4 5 9 5 4 12 8 7 13 16 13 17 13 18 16 15 19 17 19 21 20 19 20 19 19 20 20 21 19 18 18 24 27 31 27 29 26 24 23 23 19 12
7 5 9 7 2 4 4 8 6 10 14 13 10 13 18 18 13 13 14 17 21 21 19 21 21 23 23 20 24 21 19 19 20 21 25 28 30 28 28 26 23 22 17 15
4 3 4 2 4 6 6 8 9 11 7 10 14 16 16 13 15 16 17 17 18 19 19 18 20 21 20 21 23 23 22 20 20 20 19 24 28 24 27 27 23 21 20 17
6 7 6 1 7 7 10 9 9 6 9 11 12 12 14 12 16 15 17 16 17 16 18 18 20 19 20 21 22 23 22 22 20 20 20 21 24 20 21 24 23 21 18 18
5 3 13 13 12 14 17 9 9 7 11 10 12 14 11 14 16 16 15 16 16 16 16 19 18 19 19 20 21 21 20 19 20 21 23 19 21 20 14 18 20 20 20 21
8 14 12 11 14 17 9 5 7 10 11 12 13 9 11 13 15 15 15 15 15 16 17 19 19 19 19 20 21 21 19 18 19 18 19 19 17 19 16 10 14 19 20 18
7 16 12 12 1 2 1 4 9 9 11 10 7 11 11 13 12 13 15 16 17 18 18 19 19 19 20 20 20 19 18 17 17 18 17 17 17 18 15 19 15 14 16 21
7 4 3 3 3 3 5 8 9 10 7 9 10 10 9 10 12 17 14 16 17 19 18 18 18 19 19 20 19 19 18 17 16 17 16 16 16 16 16 16 16 16 23 21
4 5 2 0 4 7 8 9 6 5 8 9 10 9 10 12 13 14 16 16 17 17 17 17 16 17 20 19 21 19 18 18 16 16 15 16 16 15 16 15 16 18 19 23
9 8 7 6 6 6 3 4 5 8 10 11 9 9 11 12 14 15 16 16 16 14 15 17 18 20 20 18 19 18 16 15 17 15 15 15 14 15 14 14 14 14 15 18
14 9 7 6 2 1 2 5 7 10 9 7 8 9 10 11 12 13 15 15 16 15 17 17 18 21 19 16 19 16 16 18 17 15 14 14 15 14 14 14 15 15 15 16
11 10 7 5 4 2 1 4 6 6 5 7 8 8 10 10 11 13 15 13 14 15 16 17 19 21 19 19 18 16 14 15 16 12 12 12 11 12 12 12 14 13 12 13
14 7 7 7 7 5 3 3 2 4 6 6 7 9 9 11 12 13 13 13 15 15 17 19 20 21 20 20 20 17 13 12 13 12 12 13 14 11 11 12 12 13 15 15
11 13 12 10 8 5 3 2 2 4 5 5 7 9 9 10 10 11 11 14 16 18 19 19 22 20 18 21 21 16 15 13 13 12 12 13 13 14 13 13 14 14 15 15
12 12 12 9 6 6 6 5 4 4 5 4 5 9 10 11 11 11 12 13 15 13 15 19 19 19 20 20 21 17 18 18 17 17 17 16 16 16 15 17 16 17 18 18
16 15 13 10 9 7 8 7 6 5 4 4 5 6 5 8 9 8 10 9 13 14 15 16 18 18 16 18 17 17 18 17 16 17 17 16 16 16 16 16 17 17 18 18
16 16 14 12 11 10 7 8 7 7 5 4 4 5 4 6 8 7 9 9 9 11 11 12 14 17 16 18 16 17 17 17 16 15 16 16 16 16 16 16 16 16 16 16
18 17 15 15 15 12 9 9 8 7 7 5 3 2 3 4 4 5 5 9 8 10 9 11 14 15 14 13 13 15 17 17 16 15 15 14 15 14 14 15 15 15 16 16
19 17 17 14 14 13 12 10 8 8 8 6 4 3 2 2 3 5 4 6 9 9 8 11 12 13 11 11 12 11 11 13 14 14 14 14 13 13 14 14 14 14 13 14
19 18 17 17 18 14 13 12 10 10 9 7 4 3 5 3 2 1 4 5 6 7 7 10 12 11 9 9 9 9 10 10 11 11 12 11 12 12 12 12 12 13 13 13
21 20 19 19 17 15 14 14 15 11 11 9 6 4 4 4 2 1 2 4 5 6 6 7 9 10 8 9 8 8 8 8 9 9 9 10 12 12 13 13 13 13 13 13
16 16 14 12 11 13 14 16 16 15 13 13 10 6 5 4 3 1 1 2 4 4 6 7 7 8 8 9 8 8 8 8 7 8 8 8 9 11 13 14 15 15 13 12
Wind_Direction
179 187 29 359 55 56 69 112 64 321 314 312 319 322 319 318 322 331 338 340 344 342 339 332 335 339 344 343 346 347 352 356 359 351 347 348 351 345 333 325 310 214 217 216
212 173 230 179 99 78 44 36 276 279 291 299 310 307 322 330 329 332 334 334 338 342 342 335 330 337 344 342 345 342 347 357 358 356 352 352 350 346 342 332 323 306 222 219
301 185 172 290 243 188 164 208 223 328 289 307 322 327 323 322 323 326 329 331 332 343 339 331 327 331 337 333 332 339 345 352 0 357 354 355 350 349 345 335 323 314 278 218
301 120 277 252 181 206 206 244 247 273 284 294 302 304 302 313 313 325 332 331 332 335 333 329 328 327 325 331 329 340 353 351 356 357 357 352 356 349 345 336 322 304 297 248
338 300 281 163 186 203 218 281 248 269 283 298 304 317 315 318 324 323 328 332 331 329 331 326 331 333 331 334 331 336 350 353 356 356 358 352 354 350 346 339 326 312 299 267
319 300 279 228 222 231 153 270 226 268 296 303 312 335 318 324 333 330 335 336 335 330 328 331 330 333 333 337 339 331 339 341 355 359 1 356 346 349 346 347 334 321 320 321
289 267 279 268 266 123 255 275 287 293 295 298 304 299 303 315 329 331 335 332 333 332 332 333 335 340 341 343 350 342 333 348 352 2 0 359 350 350 351 351 348 339 337 12
314 292 306 209 270 254 254 281 281 289 294 303 300 307 312 324 327 335 334 332 332 330 332 337 343 346 348 351 345 348 347 344 348 349 354 360 355 348 355 358 354 350 349 11
222 247 306 276 277 287 293 265 286 292 300 303 312 314 319 322 328 330 328 329 330 329 328 345 341 348 348 344 345 345 353 346 346 350 352 355 356 347 357 1 359 351 349 13
286 257 268 252 252 256 268 260 293 295 305 305 314 321 327 328 325 327 329 331 331 332 336 338 342 340 338 340 343 345 346 346 346 355 351 350 356 353 349 3 359 356 357 7
251 282 294 282 256 247 245 307 321 322 313 307 320 332 325 324 325 329 331 332 331 333 333 333 336 337 338 341 344 345 347 345 347 350 346 345 346 359 344 340 4 6 357 353
259 281 274 281 323 74 330 309 319 319 320 334 334 324 324 327 331 333 332 333 334 333 334 333 337 339 342 342 342 342 343 343 345 341 347 341 343 348 347 356 347 341 352 5
252 284 257 175 42 10 328 312 310 326 345 337 334 332 329 332 337 335 332 333 335 332 330 336 343 346 344 340 340 341 338 337 341 340 342 342 346 346 351 351 5 350 348 350
225 174 239 246 283 302 303 311 338 352 345 342 335 342 351 346 335 334 333 332 332 331 338 347 355 359 352 3 1 346 339 340 343 337 336 341 341 349 356 354 355 355 358 350
210 203 215 241 268 307 329 352 347 341 338 338 356 6 354 343 337 333 331 334 334 342 4 359 352 350 347 348 351 344 348 342 339 338 337 335 338 344 352 355 359 355 1 6
213 226 241 240 280 180 345 347 336 324 337 358 3 355 345 340 339 339 339 347 359 19 356 352 347 341 338 345 340 335 333 333 339 338 340 346 349 351 353 355 1 360 2 359
208 233 245 228 208 216 261 298 306 329 4 5 360 1 359 359 355 354 354 26 10 2 358 353 346 340 340 340 338 328 321 319 325 329 337 339 341 350 350 357 359 353 350 349
213 212 195 184 188 196 262 309 352 22 15 21 25 16 18 17 14 13 7 16 4 358 4 353 347 343 340 339 335 334 327 318 319 324 327 333 336 341 353 356 350 351 348 352
185 172 165 164 174 192 184 161 98 59 42 34 33 31 34 28 18 18 16 22 16 3 353 351 346 351 350 355 350 343 334 327 327 330 335 341 352 358 5 5 1 1 358 359
167 164 163 166 179 174 159 140 119 90 69 50 43 42 39 25 30 35 25 35 24 1 354 358 357 358 358 358 359 3 7 12 18 22 25 26 20 16 14 16 14 13 7 8
172 172 176 179 170 160 154 148 137 126 103 63 54 46 38 33 36 52 34 28 18 6 3 0 5 1 0 2 11 11 12 15 19 18 18 16 16 16 16 14 16 14 7 6
172 178 183 176 170 166 162 151 142 138 126 99 67 51 48 36 25 33 49 19 359 10 10 9 8 4 4 6 12 15 17 18 19 19 19 17 15 11 8 8 10 11 6 1
178 182 179 177 177 174 163 160 155 153 146 141 124 86 69 58 33 19 9 11 8 10 17 15 7 6 11 16 14 13 11 14 15 13 14 14 11 7 8 6 3 4 2 357
180 179 182 176 162 162 173 175 164 160 153 145 150 161 139 83 44 20 9 6 9 4 16 10 10 9 15 17 14 13 16 12 9 5 6 6 4 2 0 358 357 356 356 355
178 176 171 171 179 187 178 174 170 168 163 164 166 151 153 146 156 356 15 360 10 10 5 356 2 5 12 14 9 2 3 10 3 1 356 355 352 349 344 345 345 344 341 343
175 179 181 184 189 181 178 175 183 180 171 171 174 184 181 171 128 43 14 5 359 1 359 345 348 355 356 0 354 353 353 351 354 348 343 341 338 336 330 328 327 328 325 324
177 169 167 171 178 181 181 182 182 185 182 180 184 191 194 188 180 170 16 19 3 349 351 347 338 337 341 334 329 335 335 329 318 313 312 306 308 307 309 310 313 314 314 315